Sault Sainte Marie, MI

11:17 AM EST on February 09, 2016 (GMT -0500)
Sault Ste Marie Municipal / Sanderson Field

Weather History for KANJ - September, 2014

Change the Weather History Date:

Monday, September 29, 2014

  Actual Average Record
Temperature  
Mean Temperature 52 °F 52 °F  
Max Temperature 61 °F 61 °F 80 °F (1905)
Min Temperature 42 °F 43 °F 26 °F (1993)
Degree Days  
Heating Degree Days 13 13  
Month to date heating degree days 235 241  
Since 1 July heating degree days 416 388  
Cooling Degree Days 0 0  
Month to date cooling degree days 5 15  
Year to date cooling degree days 113 193  
Growing Degree Days 2 (Base 50)    
Moisture  
Dew Point 47 °F    
Average Humidity 85    
Maximum Humidity 93    
Minimum Humidity 76    
Precipitation  
Precipitation 0.61 in 0.12 in 1.17 in (1966)
Month to date precipitation 3.97 3.69  
Year to date precipitation 22.89 22.86  
Sea Level Pressure  
Sea Level Pressure 29.98 in    
Wind  
Wind Speed 7 mph (NE)    
Max Wind Speed 14 mph    
Max Gust Speed 21 mph    
Visibility 6 miles    
Events Rain    
T = Trace of Precipitation, MM = Missing Value Source: NWS Daily Summary

Daily Weather History Graph

Daily Weather History Graph

Search for Another Location

Airport or City:

Trip Planner

Search our weather history database for the weather conditions in past years. The results will help you decide how hot, cold, wet, or windy it might be!

Date:

Astronomy

Sep. 29, 2014 Rise Set
Actual Time 7:33 AM EDT 7:21 PM EDT
Civil Twilight 7:03 AM EDT 7:51 PM EDT
Nautical Twilight 6:28 AM EDT 8:26 PM EDT
Astronomical Twilight 5:52 AM EDT 9:01 PM EDT
Moon 1:00 PM EDT (9/29) 10:38 PM EDT (9/29)
Length of Visible Light 12h 47m
Length of Day
11h 47m
Waxing Crescent, 27% of the Moon is Illuminated
Sep 29
Waxing Crescent
Oct 1
First Quarter
Oct 8
Full
Oct 15
Last Quarter
Oct 23
New

Hourly Weather History & Observations

Time (EDT) Temp. Windchill Dew Point Humidity Pressure Visibility Wind Dir Wind Speed Gust Speed Precip Events Conditions
12:55 AM 60.1 °F - 55.9 °F 86% 30.01 in 9.0 mi SE 4.6 mph - N/A   Overcast
1:55 AM 61.0 °F - 55.9 °F 83% 30.00 in 9.0 mi NE 3.5 mph - 0.00 in Rain Light Rain
2:55 AM 60.1 °F - 57.9 °F 93% 30.00 in 4.0 mi ENE 5.8 mph - 0.05 in Rain Heavy Rain
3:55 AM 60.1 °F - 57.9 °F 93% 29.98 in 6.0 mi East 3.5 mph - 0.15 in Rain Light Rain
4:11 AM 59.0 °F - 57.0 °F 93% 29.98 in 5.0 mi East 4.6 mph - 0.00 in Rain Light Rain
4:22 AM 59.0 °F - 57.0 °F 93% 29.98 in 5.0 mi East 4.6 mph - 0.00 in   Mostly Cloudy
4:55 AM 59.0 °F - 57.0 °F 93% 29.97 in 6.0 mi East 5.8 mph - 0.00 in   Overcast
5:55 AM 57.9 °F - 55.9 °F 93% 29.97 in 8.0 mi East 5.8 mph - N/A   Overcast
6:55 AM 57.0 °F - 55.0 °F 93% 29.97 in 9.0 mi East 4.6 mph - N/A   Overcast
7:55 AM 55.9 °F - 54.0 °F 93% 29.98 in 8.0 mi East 5.8 mph - N/A   Overcast
8:03 AM 55.0 °F - 54.0 °F 96% 29.98 in 8.0 mi ENE 5.8 mph - N/A   Overcast
8:55 AM 54.0 °F - 52.0 °F 93% 29.97 in 2.5 mi ENE 8.1 mph - N/A   Overcast
9:24 AM 54.0 °F - 53.1 °F 97% 29.97 in 1.8 mi ENE 6.9 mph - N/A   Overcast
9:55 AM 54.0 °F - 52.0 °F 93% 29.96 in 1.2 mi East 6.9 mph - N/A   Overcast
10:55 AM 53.1 °F - 51.1 °F 93% 29.96 in 1.5 mi ENE 8.1 mph - N/A   Overcast
11:50 AM 51.8 °F - 48.2 °F 88% 29.96 in 2.5 mi ENE 8.1 mph 18.4 mph 0.08 in Rain Rain
11:55 AM 51.1 °F - 48.9 °F 92% 29.97 in 3.0 mi Variable 4.6 mph 18.4 mph 0.09 in Rain Rain
12:00 PM 51.1 °F - 48.9 °F 92% 29.97 in 1.8 mi East 9.2 mph - 0.02 in Rain Heavy Rain
12:15 PM 50.0 °F - 48.0 °F 93% 29.97 in 2.0 mi ENE 8.1 mph - 0.14 in Rain Heavy Rain
12:27 PM 50.0 °F - 48.0 °F 93% 29.97 in 4.0 mi ENE 8.1 mph - 0.18 in Rain Rain
12:34 PM 50.0 °F - 48.0 °F 93% 29.97 in 4.0 mi ENE 9.2 mph - 0.19 in Rain Rain
12:55 PM 50.0 °F - 48.0 °F 93% 29.95 in 4.0 mi ENE 10.4 mph - 0.25 in Rain Rain
1:06 PM 50.0 °F - 46.9 °F 89% 29.95 in 3.0 mi ENE 11.5 mph 18.4 mph 0.03 in Rain Rain
1:23 PM 48.9 °F - 46.9 °F 93% 29.95 in 10.0 mi ENE 11.5 mph 20.7 mph 0.04 in Rain Light Rain
1:36 PM 48.9 °F - 46.9 °F 93% 29.96 in 10.0 mi NE 8.1 mph 18.4 mph 0.04 in   Overcast
1:53 PM 48.2 °F - 46.4 °F 93% 29.96 in 10.0 mi NE 8.1 mph 18.4 mph 0.04 in   Overcast
1:55 PM 48.9 °F - 46.0 °F 90% 29.96 in 10.0 mi NE 9.2 mph 18.4 mph 0.04 in   Overcast
2:32 PM 48.9 °F - 45.0 °F 86% 29.97 in 7.0 mi Variable 5.8 mph - 0.00 in Rain Light Rain
2:42 PM 48.0 °F - 45.0 °F 89% 29.96 in 4.0 mi NNE 9.2 mph - 0.00 in Rain Light Rain
2:53 PM 48.2 °F - 44.6 °F 87% 29.96 in 2.5 mi NNE 6.9 mph - 0.02 in Rain Light Rain
2:55 PM 48.0 °F - 44.1 °F 86% 29.96 in 2.5 mi NE 6.9 mph - 0.02 in Rain Light Rain
3:03 PM 46.9 °F - 44.1 °F 90% 29.96 in 4.0 mi NNE 6.9 mph - 0.00 in Rain Light Rain
3:55 PM 46.0 °F 43.1 °F 43.0 °F 89% 29.97 in 10.0 mi NE 5.8 mph - 0.01 in   Overcast
4:11 PM 46.0 °F 42.5 °F 44.1 °F 93% 29.97 in 3.0 mi NE 6.9 mph - 0.00 in Rain Light Rain
4:55 PM 46.0 °F 42.5 °F 43.0 °F 89% 29.97 in 3.0 mi NE 6.9 mph - 0.00 in Rain Light Rain
5:34 PM 46.0 °F 42.5 °F 43.0 °F 89% 29.99 in 10.0 mi NNE 6.9 mph - 0.00 in   Overcast
5:55 PM 46.0 °F 42.5 °F 42.1 °F 86% 30.00 in 10.0 mi NNE 6.9 mph - 0.00 in   Overcast
6:27 PM 46.0 °F 43.1 °F 42.1 °F 86% 29.99 in 10.0 mi NNE 5.8 mph - N/A   Overcast
6:55 PM 46.0 °F 42.5 °F 42.1 °F 86% 30.00 in 10.0 mi NNE 6.9 mph - N/A   Overcast
7:55 PM 45.0 °F 41.2 °F 39.0 °F 80% 30.01 in 10.0 mi NNE 6.9 mph - N/A   Overcast
8:55 PM 44.1 °F 40.1 °F 37.9 °F 79% 30.03 in 10.0 mi Variable 6.9 mph 19.6 mph N/A   Overcast
9:16 PM 44.1 °F 40.1 °F 37.9 °F 79% 30.03 in 10.0 mi Variable 6.9 mph - N/A   Overcast
9:35 PM 43.0 °F 38.2 °F 37.0 °F 80% 30.03 in 10.0 mi NNE 8.1 mph - N/A   Overcast
9:55 PM 43.0 °F 40.3 °F 37.0 °F 80% 30.04 in 10.0 mi NE 4.6 mph - N/A   Overcast
10:13 PM 43.0 °F 38.8 °F 37.0 °F 80% 30.03 in 10.0 mi NNE 6.9 mph - N/A   Overcast
10:48 PM 42.8 °F 38.6 °F 37.4 °F 81% 30.04 in 10.0 mi NNE 6.9 mph - N/A   Overcast
10:55 PM 43.0 °F 38.8 °F 37.0 °F 80% 30.04 in 10.0 mi North 6.9 mph - N/A   Overcast
11:32 PM 43.0 °F 39.5 °F 36.0 °F 76% 30.03 in 10.0 mi NNE 5.8 mph - N/A   Overcast
11:55 PM 43.0 °F 38.8 °F 37.0 °F 80% 30.04 in 10.0 mi North 6.9 mph - N/A   Overcast